Location: Dos Palmas
(32.4468°N, 116.8732°W)
Time: 22:52:45
(UTC+00:00)

Lacrosse 5 - Pass Details

Date: 20 June 2021
Orbit: 715 x 724 km, 57.0° (Epoch: 28 July)

Event Time Altitude Azimuth Distance (km) Brightness Sun altitude
Rises 04:28:04 0° 321° (NW) 3,121 6.9 -16.4°
Reaches altitude 10° 04:30:26 10° 320° (NW) 2,200 5.7 -16.7°
Maximum altitude 04:35:31 83° 233° (SW) 726 1.8 -17.5°
Enters shadow 04:37:52 32° 148° (SSE) 1,208 2.5 -17.9°
